Location: Unspecified
(0.0000°N, 0.0000°E)
Time: 06:59:18
(UTC+00:00)

Vanguard 2 Rocket - Pass Details

Date: 11 October 2023
Orbit: 552 x 3312 km, 32.9° (Epoch: 06 December)

Event Time Altitude Azimuth Distance (km) Brightness Sun altitude
Rises 16:13:57 0° 296° (WNW) 7,280 12.4 23.0°
Reaches altitude 10° 16:19:04 10° 292° (WNW) 6,254 12.3 21.7°
Maximum altitude 16:38:12 57° 219° (SW) 3,074 10.2 17.0°
Drops below altitude 10° 16:51:05 10° 142° (SE) 4,362 10.1 13.8°
Sets 16:54:00 0° 137° (SE) 5,042 10.4 13.1°
